Location: Unspecified
(0.0000°N, 0.0000°E)
Time: 16:22:47
(UTC+00:00)

FALCONSAT 3 - Visible Passes

Search period start: 22 March 2019 00:00
Search period end: 01 April 2019 00:00
Orbit: 457 x 460 km, 35.4° (Epoch: 21 March)

Date Brightness Start Highest point End Pass type
(mag) Time Alt. Az. Time Alt. Az. Time Alt. Az.
22 Mar ? 18:36:19 10° NNW 18:39:26 27° NE 18:42:16 12° E visible
22 Mar ? 20:15:18 10° W 20:16:02 14° W 20:16:02 14° W visible
23 Mar ? 19:38:52 10° W 19:42:01 27° SW 19:42:27 27° SSW visible
24 Mar ? 05:42:17 10° SSW 05:45:06 21° SE 05:47:56 10° E visible
24 Mar ? 19:02:28 10° WNW 19:05:46 33° SW 19:08:51 11° SSE visible
25 Mar ? 05:06:17 10° S 05:08:51 18° SE 05:11:24 10° E visible
25 Mar ? 18:26:05 10° WNW 18:29:31 39° SW 18:32:58 10° SSE visible
26 Mar ? 04:31:20 13° SSE 04:32:36 15° SE 04:34:49 10° ESE visible
27 Mar ? 03:57:44 11° ESE 03:57:44 11° ESE 03:58:06 10° ESE visible
27 Mar ? 05:31:38 10° WSW 05:35:12 52° NW 05:38:43 10° NE visible
28 Mar ? 04:57:51 40° WSW 04:58:56 65° NW 05:02:31 10° NE visible
29 Mar ? 04:24:09 33° NE 04:24:09 33° NE 04:26:17 10° NE visible
